Simultaneous Nadir Overpasses (SNOs) Predictions

Prediction of SNOs between GOES-15 and NPP Satellite Orbit:

Table of predicted SNOs for the next 14.0 days since TLE Epoch: 12/10/2016
Index Date Time (GOES-15) GOES-15 Lat,Lon NPP Lat,Lon Distance(km) Time Diff (sec)
1 12/11/2016 22:28:18 0.03,-135.28 -0.17,-136.08 92.28 80
2 12/12/2016 22:12:14 0.02,-135.26 0.87,-131.56 422.68 80
3 12/14/2016 10:31:21 -0.03,-135.27 0.33,-136.83 177.21 80
4 12/15/2016 10:15:17 -0.02,-135.25 -0.71,-132.30 337.25 80
5 12/16/2016 22:34:32 0.04,-135.18 -0.50,-137.60 275.49 80
6 12/17/2016 22:18:26 0.03,-135.16 0.47,-133.06 238.86 80
7 12/19/2016 10:37:35 -0.05,-135.17 0.66,-138.34 361.49 80
8 12/20/2016 10:21:29 -0.04,-135.15 -0.31,-133.80 152.65 80
9 12/21/2016 22:40:46
